Weather History for KBML - December, 1997

Change the Weather History Date:

Monday, December 8, 1997

  Actual Average Record
Temperature  
Mean Temperature 18 °F -  
Max Temperature 30 °F 31 °F 39 °F (2004)
Min Temperature 1 °F 13 °F -14 °F (2000)
Degree Days  
Heating Degree Days 48    
Moisture  
Dew Point 14 °F    
Average Humidity 77    
Maximum Humidity 95    
Minimum Humidity 64    
Precipitation  
Precipitation 0.02 in - - ()
Sea Level Pressure  
Sea Level Pressure 29.95 in    
Wind  
Wind Speed 6 mph (WNW)    
Max Wind Speed 13 mph    
Max Gust Speed 23 mph    
Visibility 10 miles    
Events      
Averages and records for this station are not official NWS values.
T = Trace of Precipitation, MM = Missing Value Source: NWS Daily Summary

Daily Weather History Graph

Daily Weather History Graph

Search for Another Location

Airport or City:

Trip Planner

Search our weather history database for the weather conditions in past years. The results will help you decide how hot, cold, wet, or windy it might be!

Date:

Astronomy

Dec. 08, 1997 Rise Set
Actual Time 7:08 AM EST 4:04 PM EST
Civil Twilight 6:35 AM EST 4:37 PM EST
Nautical Twilight 5:58 AM EST 5:14 PM EST
Astronomical Twilight 5:23 AM EST 5:49 PM EST
Moon 12:58 PM EST (12/8) 12:27 AM EST (12/8)
Length of Visible Light 10h 02m
Length of Day
8h 55m
Waxing Gibbous, 66% of the Moon is Illuminated
Dec 8
Waxing Gibbous
Dec 13
Full
Dec 21
Last Quarter
Dec 29
New
Jan 5
First Quarter

Hourly Weather History & Observations

Time (EST) Temp. Windchill Dew Point Humidity Pressure Visibility Wind Dir Wind Speed Gust Speed Precip Events Conditions
12:52 AM 30.0 °F 22.4 °F 21.9 °F 72% 29.73 in 10.0 mi NW 8.1 mph 23.0 mph N/A   Mostly Cloudy
1:52 AM 28.9 °F 18.6 °F 21.0 °F 72% 29.76 in 10.0 mi WNW 12.7 mph 18.4 mph N/A   Overcast
2:52 AM 28.9 °F 25.2 °F 21.0 °F 72% 29.78 in 10.0 mi Variable 3.5 mph - N/A   Overcast
3:52 AM 28.0 °F 24.2 °F 21.0 °F 75% 29.80 in 10.0 mi WNW 3.5 mph - N/A   Overcast
4:52 AM 27.0 °F 17.3 °F 19.0 °F 72% 29.82 in 10.0 mi WNW 10.4 mph - N/A   Mostly Cloudy
5:52 AM 26.1 °F 19.4 °F 18.0 °F 71% 29.85 in 10.0 mi NNW 5.8 mph - N/A   Overcast
6:52 AM 24.1 °F 17.0 °F 17.1 °F 75% 29.88 in 10.0 mi WNW 5.8 mph - N/A   Mostly Cloudy
7:52 AM 23.0 °F 13.9 °F 16.0 °F 74% 29.91 in 10.0 mi North 8.1 mph - N/A   Scattered Clouds
8:21 AM 21.2 °F - 15.8 °F 80% 29.88 in 10.0 mi Calm Calm - N/A   Mostly Cloudy
8:52 AM 24.1 °F 18.2 °F 17.1 °F 75% 29.94 in 10.0 mi WNW 4.6 mph - N/A   Overcast
9:52 AM 25.0 °F 16.3 °F 16.0 °F 69% 29.96 in 10.0 mi WNW 8.1 mph - N/A   Partly Cloudy
10:52 AM 26.1 °F 16.2 °F 17.1 °F 69% 29.96 in 10.0 mi West 10.4 mph 17.3 mph N/A   Scattered Clouds
11:52 AM 27.0 °F 18.0 °F 17.1 °F 66% 29.95 in 10.0 mi NW 9.2 mph - 0.01 in   Partly Cloudy
12:43 PM 26.6 °F 15.7 °F 15.8 °F 64% 29.90 in 10.0 mi West 12.7 mph 18.4 mph N/A   Mostly Cloudy
12:52 PM 27.0 °F 16.1 °F 17.1 °F 66% 29.95 in 10.0 mi West 12.7 mph 19.6 mph N/A   Scattered Clouds
1:52 PM 27.0 °F 16.7 °F 17.1 °F 66% 29.96 in 10.0 mi West 11.5 mph - 0.01 in   Clear
2:52 PM 26.1 °F 16.8 °F 17.1 °F 69% 29.98 in 10.0 mi WNW 9.2 mph - N/A   Clear
3:52 PM 24.1 °F 15.2 °F 16.0 °F 71% 30.01 in 10.0 mi WNW 8.1 mph - N/A   Clear
4:52 PM 23.0 °F - 16.0 °F 74% 30.03 in 10.0 mi Calm Calm - N/A   Clear
5:13 PM 19.4 °F 14.3 °F 15.8 °F 86% 29.98 in 10.0 mi North 3.5 mph - N/A   Mostly Cloudy
5:52 PM 18.0 °F - 15.1 °F 88% 30.05 in 10.0 mi Calm Calm - N/A   Overcast
6:43 PM 15.8 °F - 12.2 °F 86% 30.00 in 10.0 mi Calm Calm - N/A   Scattered Clouds
6:52 PM 16.0 °F - 14.0 °F 92% 30.06 in 10.0 mi Calm Calm - N/A   Partly Cloudy
7:52 PM 10.0 °F - 7.0 °F 87% 30.07 in 10.0 mi Calm Calm - N/A   Clear
8:52 PM 6.1 °F - 3.0 °F 87% 30.08 in 10.0 mi Calm Calm - N/A   Partly Cloudy
9:12 PM 5.0 °F - 3.2 °F 92% 30.01 in 7.0 mi Calm Calm - N/A   Partly Cloudy
9:52 PM 6.1 °F - 5.0 °F 95% 30.09 in 10.0 mi Calm Calm - N/A   Clear
10:52 PM 5.0 °F - 1.9 °F 87% 30.10 in 10.0 mi Calm Calm - N/A   Clear
11:52 PM 1.9 °F - -0.9 °F 88% 30.12 in 10.0 mi Calm Calm - N/A   Clear